[[{"header":{"parameterUnit":"m.s-1","parameterCategory":1,"la1":30.2991,"la2":30.254,"lo1":-89.0895,"lo2":-89.0444,"dy":0.0017,"dx":0.0017,"nx":28,"ny":28,"refTime":"2025-03-09T09:00:00:Z","depth":0,"parameterNumber":2,"parameterNumberName":"U-component_of_WINDS"},"data":[0,0,0,0,0,0,0,0,0,0,0,0,0,0,0,0,0,0,0,0,0,0,0,0,0,0,0,0,0,0,0,0,0,0,0,0,0,0,0,0,0,0,0,0,0,0,0,0,0,0,0,0,0,0,0,0,0,0,2.4746,2.4746,0,2.4793,2.4794,2.4794,2.4759,2.4758,2.4756,2.4755,2.4803,2.4805,2.4808,0,0,0,0,0,0,0,0,0,0,0,0,0,2.4625,2.4627,2.4746,2.4746,2.4747,2.4793,2.4794,2.4794,2.476,2.4758,2.4756,2.4754,2.4802,2.4805,2.4808,0,0,0,0,0,0,0,0,0,0,0,0,0,2.4675,2.4628,2.4746,2.4735,2.4735,2.4793,2.4794,2.4795,2.476,2.4758,2.4755,2.4753,2.4801,2.4804,2.4808,2.4879,0,0,2.4821,2.4823,0,0,0,0,0,0,0,0,2.4673,2.468,2.4736,2.4736,2.4736,2.4768,2.4769,2.4823,2.4761,2.475,2.4755,2.4752,2.4793,2.4797,2.4811,2.4882,2.4884,2.4821,2.4824,2.4825,2.4827,0,0,0,0,0,0,0,2.4669,2.4678,2.4764,2.4737,2.4737,2.4728,2.4733,2.4779,2.4784,2.4751,2.4749,2.4755,2.4792,2.4807,2.4812,2.4884,2.4821,2.4825,2.4827,2.4829,2.5017,2.5019,0,0,0,0,0,0,2.4667,2.4675,2.4763,2.4766,2.4698,2.4732,2.4737,2.476,2.4783,2.4785,2.4757,2.4753,2.4802,2.4807,2.4814,2.4899,2.4825,2.4829,2.4831,2.5014,2.5017,2.502,0,0,0,0,0,0,2.4664,2.4675,2.4761,2.472,2.473,2.4737,2.4762,2.4762,2.4777,2.4788,2.4788,2.4771,2.48,2.4808,2.4864,2.49,2.4831,2.4835,2.5011,2.5015,2.5019,2.5071,0,0,0,0,0,0,2.4661,2.4674,2.4701,2.4721,2.4733,2.4811,2.4765,2.4765,2.4784,2.478,2.4801,2.4803,2.4799,2.4858,2.4868,2.4905,2.4838,2.5008,2.5013,2.5018,2.5066,2.5076,2.5084,0,0,0,0,0,2.4657,2.4713,2.4703,2.4714,2.4766,2.4813,2.4819,2.4814,2.4787,2.4815,2.4822,2.4802,2.4895,2.4864,2.4875,2.4913,2.5006,2.5012,2.5017,2.5061,2.5074,2.5084,0,0,0,0,0,0,2.4697,2.4716,2.4704,2.4769,2.479,2.4807,2.4841,2.4827,2.4855,2.485,2.4842,2.4847,2.4906,2.4915,2.488,2.4984,2.4946,2.4954,2.4976,2.4988,2.4997,2.4994,2.4841,0,0,0,0,0,2.4714,2.475,2.4764,2.482,2.4831,2.4834,2.4854,2.4848,2.4869,2.4878,2.4889,2.491,2.4944,2.4966,2.4998,2.5067,2.5071,2.5099,2.5108,2.5116,2.5123,2.5161,2.5174,2.5039,2.5039,2.5039,0,0,2.4748,2.4763,2.4786,2.4828,2.4844,2.4882,2.4842,2.4883,2.4911,2.4884,2.4938,2.4947,2.4969,2.5033,2.5061,2.5042,2.5161,2.5123,2.5129,2.5132,2.5169,2.5182,2.5193,2.5043,2.5042,2.5042,0,0,2.483,2.4845,2.4893,2.491,2.4934,2.4936,2.4948,2.4968,2.4973,2.5026,2.5007,2.504,2.5099,2.5116,2.5133,2.5223,2.5207,2.5234,2.5283,2.532,2.5331,2.534,2.5374,2.5385,2.5241,2.5241,2.5241,0,2.487,2.4926,2.492,2.4963,2.4983,2.4961,2.501,2.5026,2.506,2.5074,2.5052,2.5126,2.514,2.5207,2.523,2.5243,2.5257,2.5231,2.533,2.5339,2.5348,2.538,2.5392,2.5244,2.5244,2.5244,2.5243,0,2.4974,2.5014,2.505,2.5084,2.5107,2.5153,2.5154,2.5179,2.5171,2.5176,2.5232,2.5248,2.5283,2.5298,2.5291,2.5365,2.5353,2.5331,2.5293,2.5364,2.5394,2.5406,2.5249,2.5248,2.5247,2.5246,0,0,2.5083,2.5113,2.5127,2.5142,2.5168,2.5198,2.5244,2.5279,2.53,2.5324,2.5363,2.5413,2.5394,2.5412,2.5407,2.544,2.5512,2.5414,2.5414,2.5432,2.5596,2.5613,2.5627,2.5501,2.5503,2.5505,2.5594,0,2.5167,2.5247,2.5243,2.5318,2.5355,2.5335,2.5374,2.5394,2.54,2.5432,2.5438,2.5475,2.5445,2.5457,2.5489,2.5496,2.5545,2.549,2.5537,2.5539,2.5532,2.5642,2.566,2.5743,2.5606,2.5607,2.5609,0,2.5276,2.5304,2.5383,2.5404,2.542,2.5456,2.5488,2.5519,2.5542,2.5543,2.5565,2.5555,2.5601,2.5562,2.5626,2.5589,2.5608,2.5615,2.5618,2.5623,2.5578,2.565,2.5769,2.5782,2.5627,2.5625,2.5624,0,2.5348,2.5406,2.5461,2.5475,2.5501,2.5527,2.5539,2.5559,2.5581,2.5609,2.5623,2.5656,2.5675,2.5701,2.57,2.5671,2.5765,2.5725,2.5769,2.5769,2.5789,2.5788,2.5914,2.5801,2.5801,2.5801,2.58,0,2.5443,2.5492,2.5494,2.5528,2.5583,2.5578,2.5632,2.5642,2.566,2.5696,2.568,2.5714,2.571,2.5744,2.5743,2.5797,2.5806,2.5809,2.5808,2.5811,2.581,2.5823,2.5818,2.5804,2.5803,2.5802,2.5802,0,2.5533,2.5537,2.5595,2.5616,2.5622,2.5661,2.5679,2.5711,2.5716,2.5761,2.5771,2.5778,2.5818,2.5819,2.5864,2.5864,2.593,2.5922,2.5923,2.5921,2.5965,2.5961,2.6104,2.6123,2.5997,2.5998,2.5999,0,2.5594,2.5631,2.5656,2.5679,2.5693,2.573,2.5752,2.5749,2.5773,2.5802,2.5831,2.5869,2.59,2.5964,2.5973,2.6008,2.6001,2.6049,2.6006,2.6008,2.6003,2.6001,2.6005,2.6057,2.6059,2.606,2.6061,0,2.5701,2.5702,2.5734,2.5769,2.5796,2.5823,2.5847,2.5867,2.5867,2.5894,2.5935,2.5959,2.6005,2.6043,2.6077,2.6089,2.6076,2.6074,2.6086,2.6089,2.6088,2.609,2.5946,2.6071,2.607,2.6069,2.6069,2.6068,2.5779,2.5812,2.5835,2.5873,2.5891,2.5915,2.5947,2.5956,2.5989,2.6027,2.6023,2.6069,2.6091,2.6136,2.6151,2.6186,2.617,2.6187,2.6191,2.6196,2.6201,2.6082,2.6192,2.6192,2.6192,2.6191,2.6191,0,2.5887,2.5901,2.5935,2.5971,2.6001,2.5985,2.6012,2.6038,2.6078,2.6101,2.6131,2.6178,2.6216,2.6228,2.6265,2.6291,2.6285,2.63,2.6299,2.6302,2.6213,2.6199,2.6304,2.6304,2.6304,2.6304,2.6304,2.6304,2.5946,2.6002,2.6005,2.6069,2.6083,2.6127,2.6144,2.6166,2.6184,2.6237,2.6269,2.6277,2.6296,2.6333,2.6367,2.637,2.6384,2.6402,2.6403,2.6319,2.6308,2.6297,2.6284,2.6405,2.6405,2.6489,2.6489,2.649]},{"header":{"parameterUnit":"m.s-1","parameterCategory":1,"la1":30.2991,"la2":30.254,"lo1":-89.0895,"lo2":-89.0444,"dy":0.0017,"dx":0.0017,"nx":28,"ny":28,"refTime":"2025-03-09T09:00:00:Z","depth":0,"parameterNumber":3,"parameterNumberName":"V-component_of_WINDS"},"data":[0,0,0,0,0,0,0,0,0,0,0,0,0,0,0,0,0,0,0,0,0,0,0,0,0,0,0,0,0,0,0,0,0,0,0,0,0,0,0,0,0,0,0,0,0,0,0,0,0,0,0,0,0,0,0,0,0,0,-1.9252,-1.9252,0,-1.9299,-1.9299,-1.93,-1.9287,-1.9286,-1.9285,-1.9284,-1.9333,-1.9335,-1.9337,0,0,0,0,0,0,0,0,0,0,0,0,0,-1.9154,-1.9156,-1.9252,-1.9253,-1.9253,-1.9299,-1.9299,-1.93,-1.9287,-1.9286,-1.9284,-1.9283,-1.9332,-1.9335,-1.9338,0,0,0,0,0,0,0,0,0,0,0,0,0,-1.9199,-1.9157,-1.9252,-1.9252,-1.9252,-1.9298,-1.9299,-1.93,-1.9287,-1.9285,-1.9284,-1.9283,-1.9332,-1.9335,-1.9338,-1.9387,0,0,-1.9348,-1.935,0,0,0,0,0,0,0,0,-1.9196,-1.9202,-1.9251,-1.9252,-1.9253,-1.9285,-1.9283,-1.9329,-1.9287,-1.9274,-1.9284,-1.9282,-1.9318,-1.9323,-1.9335,-1.9389,-1.9392,-1.9348,-1.935,-1.9352,-1.9353,0,0,0,0,0,0,0,-1.9193,-1.92,-1.927,-1.9252,-1.9253,-1.9251,-1.9255,-1.9292,-1.9304,-1.9275,-1.9274,-1.928,-1.9319,-1.9332,-1.9336,-1.9392,-1.9348,-1.9351,-1.9353,-1.9355,-1.9492,-1.9493,0,0,0,0,0,0,-1.9189,-1.9198,-1.9269,-1.9272,-1.922,-1.9254,-1.9259,-1.9276,-1.9303,-1.9306,-1.9281,-1.9279,-1.9327,-1.9332,-1.9337,-1.9398,-1.9352,-1.9355,-1.9357,-1.949,-1.9492,-1.9494,0,0,0,0,0,0,-1.9187,-1.9196,-1.9267,-1.9235,-1.9243,-1.9257,-1.9277,-1.9278,-1.9291,-1.9308,-1.931,-1.9292,-1.9326,-1.9333,-1.9375,-1.9399,-1.9356,-1.9359,-1.9488,-1.949,-1.9493,-1.9518,0,0,0,0,0,0,-1.9184,-1.9195,-1.9213,-1.9235,-1.9245,-1.9303,-1.9278,-1.928,-1.9296,-1.9294,-1.9319,-1.9321,-1.9325,-1.937,-1.9378,-1.9403,-1.9362,-1.9486,-1.9489,-1.9492,-1.9515,-1.9521,-1.9526,0,0,0,0,0,-1.9181,-1.9218,-1.9214,-1.9223,-1.9268,-1.9304,-1.931,-1.9314,-1.9298,-1.9317,-1.9328,-1.932,-1.9395,-1.9375,-1.9384,-1.941,-1.9484,-1.9488,-1.9492,-1.9512,-1.9519,-1.9526,0,0,0,0,0,0,-1.9199,-1.9221,-1.9216,-1.9262,-1.9281,-1.9302,-1.9326,-1.9321,-1.9346,-1.9343,-1.9346,-1.9352,-1.9396,-1.9407,-1.9384,-1.9459,-1.9438,-1.9443,-1.945,-1.9457,-1.9463,-1.9459,-1.9365,0,0,0,0,0,-1.9208,-1.9235,-1.9253,-1.9291,-1.9302,-1.9312,-1.9328,-1.9329,-1.935,-1.9358,-1.9372,-1.9393,-1.9422,-1.944,-1.9467,-1.9517,-1.9522,-1.9539,-1.9545,-1.9549,-1.9554,-1.9582,-1.959,-1.9506,-1.9506,-1.9506,0,0,-1.9227,-1.9242,-1.9259,-1.9295,-1.9311,-1.934,-1.9319,-1.935,-1.9372,-1.9363,-1.9404,-1.9415,-1.9439,-1.9485,-1.9507,-1.9496,-1.9579,-1.9554,-1.9557,-1.956,-1.9587,-1.9595,-1.9602,-1.9508,-1.9508,-1.9508,0,0,-1.9276,-1.9291,-1.9324,-1.9341,-1.9364,-1.9371,-1.9379,-1.9401,-1.9409,-1.945,-1.9444,-1.9471,-1.9519,-1.9536,-1.9552,-1.961,-1.9604,-1.9619,-1.9648,-1.9675,-1.9682,-1.9688,-1.971,-1.9717,-1.9624,-1.9624,-1.9624,0,-1.9297,-1.934,-1.9343,-1.9375,-1.9391,-1.9385,-1.942,-1.9435,-1.9467,-1.9479,-1.9467,-1.9529,-1.9544,-1.9595,-1.961,-1.9622,-1.9632,-1.9616,-1.9681,-1.9687,-1.9692,-1.9713,-1.9721,-1.9626,-1.9626,-1.9625,-1.9625,0,-1.9365,-1.9395,-1.942,-1.945,-1.9469,-1.9503,-1.9512,-1.9532,-1.9532,-1.954,-1.9583,-1.9602,-1.9633,-1.9645,-1.9645,-1.9697,-1.969,-1.968,-1.9658,-1.9702,-1.9722,-1.9729,-1.9628,-1.9627,-1.9627,-1.9627,0,0,-1.9425,-1.9458,-1.9467,-1.9481,-1.9508,-1.9531,-1.9565,-1.9596,-1.9613,-1.9635,-1.9665,-1.9707,-1.9698,-1.9715,-1.9717,-1.9742,-1.9788,-1.9728,-1.9729,-1.9739,-1.9848,-1.9856,-1.9865,-1.9785,-1.9786,-1.9788,-1.9846,0,-1.9478,-1.9536,-1.9541,-1.9594,-1.9623,-1.9618,-1.9648,-1.9668,-1.9677,-1.9704,-1.9715,-1.9745,-1.973,-1.9741,-1.9765,-1.9777,-1.981,-1.9773,-1.9813,-1.9814,-1.9807,-1.9875,-1.9883,-1.9937,-1.9853,-1.9855,-1.9856,0,-1.9546,-1.957,-1.9626,-1.965,-1.9662,-1.9689,-1.9718,-1.9743,-1.9766,-1.9772,-1.9792,-1.9792,-1.9828,-1.9806,-1.9857,-1.9832,-1.9848,-1.9857,-1.986,-1.9863,-1.9837,-1.988,-1.9954,-1.9962,-1.9868,-1.9867,-1.9866,0,-1.9585,-1.9632,-1.9672,-1.9684,-1.9713,-1.9732,-1.9745,-1.9767,-1.9785,-1.9811,-1.9824,-1.9854,-1.987,-1.9894,-1.9902,-1.9885,-1.9953,-1.9931,-1.996,-1.996,-1.9974,-1.9973,-2.0051,-1.9985,-1.9985,-1.9984,-1.9984,0,-1.9642,-1.9677,-1.969,-1.9715,-1.9754,-1.976,-1.9799,-1.9811,-1.9831,-1.9859,-1.9857,-1.9884,-1.9893,-1.9921,-1.9928,-1.997,-1.9977,-1.9984,-1.9985,-1.9984,-1.9983,-1.9995,-1.9991,-1.9987,-1.9986,-1.9986,-1.9985,0,-1.9692,-1.9702,-1.9745,-1.9769,-1.9776,-1.9804,-1.9825,-1.985,-1.986,-1.9895,-1.9904,-1.992,-1.9954,-1.9964,-2.0005,-2.001,-2.0059,-2.0057,-2.0051,-2.0051,-2.0079,-2.0077,-2.0168,-2.018,-2.0105,-2.0106,-2.0107,0,-1.9728,-1.9754,-1.9781,-1.98,-1.9813,-1.9843,-1.9862,-1.987,-1.989,-1.992,-1.9941,-1.9974,-2.0001,-2.0055,-2.0071,-2.0103,-2.0102,-2.0132,-2.0106,-2.0105,-2.0103,-2.0101,-2.0104,-2.0136,-2.0137,-2.0138,-2.0138,0,-1.9791,-1.9795,-1.9822,-1.9851,-1.9874,-1.9898,-1.9921,-1.9936,-1.9947,-1.997,-2.0005,-2.0026,-2.0068,-2.0101,-2.0134,-2.0148,-2.0146,-2.0146,-2.0154,-2.0153,-2.0149,-2.0152,-2.0064,-2.0144,-2.0143,-2.0143,-2.0142,-2.0142,-1.9835,-1.9859,-1.9882,-1.9913,-1.9931,-1.9953,-1.9977,-1.9991,-2.0019,-2.0053,-2.0057,-2.0094,-2.0119,-2.0162,-2.0179,-2.0209,-2.02,-2.0212,-2.0216,-2.0218,-2.0221,-2.0144,-2.0215,-2.0215,-2.0215,-2.0214,-2.0214,0,-1.9898,-1.9913,-1.9941,-1.9973,-1.9998,-1.9993,-2.0019,-2.004,-2.0073,-2.0096,-2.0123,-2.0163,-2.0197,-2.0216,-2.0249,-2.027,-2.027,-2.0278,-2.0277,-2.0281,-2.0226,-2.0216,-2.0278,-2.0278,-2.0278,-2.0278,-2.0278,-2.0278,-1.9934,-1.9974,-1.9981,-2.0032,-2.0047,-2.0083,-2.0098,-2.0119,-2.0138,-2.0183,-2.021,-2.0222,-2.0244,-2.028,-2.031,-2.0315,-2.0328,-2.0338,-2.0342,-2.0291,-2.0284,-2.0278,-2.0268,-2.034,-2.034,-2.0394,-2.0394,-2.0395]}]]